Location: Fontevrault
(47.1823°N, 0.0493°E)
Time: 08:35:18
(UTC+00:00)

ERS-1 Rocket - Pass Details

Date: 16 June 2021
Orbit: 752 x 758 km, 98.4° (Epoch: 26 July)

Event Time Altitude Azimuth Distance (km) Brightness Sun altitude
Exits shadow 21:24:36 14° 159° (SSE) 2,012 4.6 -11.2°
Maximum altitude 21:28:56 79° 74° (ENE) 780 3.0 -11.6°
Drops below altitude 10° 21:34:00 10° 348° (NNW) 2,300 6.7 -12.1°
Sets 21:36:19 0° 348° (NNW) 3,230 7.7 -12.3°
